{"data":{"norad_id":61525,"epoch":"2026-05-25T03:36:24.619680Z","epoch_age_seconds":66079,"freshness":"FRESH","line1":"1 61525U 24183S   26145.15028495  .00002106  00000+0  83187-4 0  9998","line2":"2 61525  53.1600 146.9473 0001278  91.9045 268.2102 15.30211102 91362","mean_motion":15.30211102,"eccentricity":0.0001278,"inclination_deg":53.16,"raan_deg":146.9473,"arg_perigee_deg":91.9045,"mean_anomaly_deg":268.2102,"bstar":8.3187e-5,"rev_number":9136,"period_min":94.104662952576,"perigee_km":474.30606689078,"apogee_km":476.057775207,"semimajor_km":6853.3189210489,"source":"CELESTRAK","updated_at":"2026-05-25T13:38:19.395382Z"}}